Weather History for Ekofisk, Norway

Change the Weather History Date:

Thursday, February 7, 2013

  Actual Average Record
Temperature  
Mean Temperature 38 °F -  
Max Temperature 41 °F 43 °F 48 °F (2008)
Min Temperature 35 °F 38 °F 30 °F (1999)
Degree Days  
Heating Degree Days 27    
Moisture  
Dew Point 33 °F    
Average Humidity 81    
Maximum Humidity 93    
Minimum Humidity 65    
Precipitation  
Precipitation 0.00 in - - ()
Sea Level Pressure  
Sea Level Pressure 29.81 in    
Wind  
Wind Speed 24 mph ()    
Max Wind Speed 39 mph    
Max Gust Speed 44 mph    
Visibility 6.3 miles    
Events Rain , Snow    
Averages and records for this station are not official NWS values.
T = Trace of Precipitation, MM = Missing Value Source: Averaged Metar Reports

Daily Weather History Graph

Daily Weather History Graph

Search for Another Location

Airport:

Trip Planner

Search our weather history database for the weather conditions in past years. The results will help you decide how hot, cold, wet, or windy it might be!

Date:

Astronomy

Feb. 07, 2013 Rise Set
Actual Time 8:31 AM CET 5:31 PM CET
Civil Twilight 7:50 AM CET 6:12 PM CET
Nautical Twilight 7:06 AM CET 6:57 PM CET
Astronomical Twilight 6:22 AM CET 7:40 PM CET
Moon 6:18 AM CET (2/7) 2:18 PM CET (2/7)
Length of Visible Light 10h 21m
Length of Day
8h 59m
Waning Crescent, 11% of the Moon is Illuminated
Feb 7
Waning Crescent
Feb 10
New
Feb 17
First Quarter
Feb 25
Full
Mar 4
Last Quarter

Hourly Weather History & Observations

Time (CET) Temp. Windchill Dew Point Humidity Pressure Visibility Wind Dir Wind Speed Gust Speed Precip Events Conditions
12:20 AM 37.4 °F 23.8 °F 33.8 °F 87% 29.74 in 6.2 mi North 36.8 mph - N/A Rain Light Rain Showers
12:50 AM 37.4 °F 24.8 °F 35.6 °F 93% 29.74 in 6.2 mi North 31.1 mph - N/A   Scattered Clouds
1:00 AM 40 °F - 34 °F 70% 29.77 in 12 mi North 26.8 mph - - Rain Light Rain Showers
1:20 AM 39.2 °F 26.8 °F 33.8 °F 81% 29.74 in 6.2 mi NNW 33.4 mph - N/A   Scattered Clouds
1:50 AM 39.2 °F 27.2 °F 32.0 °F 75% 29.74 in 6.2 mi NNW 31.1 mph - N/A Rain Light Rain Showers
2:20 AM 37.4 °F 25.0 °F 32.0 °F 81% 29.74 in 6.2 mi North 29.9 mph - N/A   Scattered Clouds
2:50 AM 35.6 °F 21.0 °F 32.0 °F 87% 29.77 in 6.2 mi North 39.1 mph - N/A   Scattered Clouds
3:20 AM 37.4 °F 24.0 °F 33.8 °F 87% 29.77 in 6.2 mi North 35.7 mph - N/A   Scattered Clouds
3:50 AM 37.4 °F 24.6 °F 33.8 °F 87% 29.77 in 6.2 mi NNW 32.2 mph 43.7 mph N/A   Partly Cloudy
4:20 AM 37.4 °F 26.4 °F 33.8 °F 87% 29.77 in 6.2 mi NNW 23.0 mph - N/A   Partly Cloudy
4:50 AM 39.2 °F 28.0 °F 33.8 °F 81% 29.77 in 6.2 mi North 26.5 mph - N/A   Partly Cloudy
5:50 AM 37.4 °F 26.4 °F 33.8 °F 87% 29.77 in 6.2 mi NNW 23.0 mph - N/A   Partly Cloudy
6:20 AM 39.2 °F 27.4 °F 32.0 °F 75% 29.77 in 6.2 mi NNW 29.9 mph - N/A   Partly Cloudy
6:50 AM 37.4 °F 25.2 °F 32.0 °F 81% 29.77 in 6.2 mi NNW 28.8 mph - N/A Rain Light Rain Showers
7:20 AM 35.6 °F 21.5 °F 33.8 °F 93% 29.77 in 6.2 mi NNW 35.7 mph - N/A Rain Light Rain Showers
7:50 AM 35.6 °F 23.0 °F 33.8 °F 93% 29.77 in 6.2 mi NNW 27.6 mph - N/A Rain Light Rain Showers
8:20 AM 35.6 °F 23.0 °F 33.8 °F 93% 29.77 in 6.2 mi NW 27.6 mph - N/A   Partly Cloudy
8:50 AM 35.6 °F 23.0 °F 33.8 °F 93% 29.77 in 6.2 mi NW 27.6 mph - N/A   Partly Cloudy
9:20 AM 37.4 °F 25.9 °F 35.6 °F 93% 29.77 in 6.2 mi NNW 25.3 mph - N/A   Partly Cloudy
9:50 AM 37.4 °F 25.2 °F 35.6 °F 93% 29.80 in 6.2 mi NNW 28.8 mph - N/A   Partly Cloudy
10:20 AM 37.4 °F 25.2 °F 33.8 °F 87% 29.77 in 6.2 mi NW 28.8 mph - N/A   Partly Cloudy
10:50 AM 37.4 °F 25.2 °F 33.8 °F 87% 29.77 in 6.2 mi NW 28.8 mph - N/A   Partly Cloudy
11:20 AM 37.4 °F 25.2 °F 33.8 °F 87% 29.80 in 6.2 mi NNW 28.8 mph - N/A   Partly Cloudy
11:50 AM 39.2 °F 29.0 °F 33.8 °F 81% 29.80 in 6.2 mi NNW 21.9 mph - N/A   Partly Cloudy
12:20 PM 39.2 °F 29.8 °F 33.8 °F 81% 29.80 in 6.2 mi North 18.4 mph - N/A   Partly Cloudy
12:50 PM 39.2 °F 29.8 °F 33.8 °F 81% 29.80 in 6.2 mi North 18.4 mph - N/A   Partly Cloudy
1:00 PM 39 °F - 34 °F 76% 29.80 in 31 mi NNW 15.7 mph - -   Partly Cloudy
1:50 PM 41.0 °F 31.9 °F 30.2 °F 65% 29.80 in 6.2 mi North 19.6 mph - N/A   Partly Cloudy
2:20 PM 41.0 °F 31.9 °F 32.0 °F 70% 29.80 in 6.2 mi North 19.6 mph - N/A   Scattered Clouds
2:50 PM 41.0 °F 31.9 °F 32.0 °F 70% 29.80 in 6.2 mi North 19.6 mph - N/A   Partly Cloudy
3:20 PM 41.0 °F 31.6 °F 32.0 °F 70% 29.80 in 6.2 mi North 20.7 mph - N/A   Partly Cloudy
3:50 PM 39.2 °F 29.3 °F 32.0 °F 75% 29.80 in 6.2 mi NNE 20.7 mph - N/A   Partly Cloudy
4:20 PM 37.4 °F 28.2 °F 32.0 °F 81% 29.83 in 6.2 mi NNE 16.1 mph - N/A   Partly Cloudy
4:50 PM 37.4 °F 28.2 °F 32.0 °F 81% 29.83 in 6.2 mi NNE 16.1 mph - N/A   Partly Cloudy
5:20 PM 37.4 °F 28.9 °F 32.0 °F 81% 29.83 in 6.2 mi NNE 13.8 mph - N/A   Partly Cloudy
5:50 PM 37.4 °F 28.2 °F 32.0 °F 81% 29.86 in 6.2 mi NE 16.1 mph - N/A   Partly Cloudy
6:20 PM 37.4 °F 28.2 °F 32.0 °F 81% 29.86 in 6.2 mi NE 16.1 mph - N/A   Partly Cloudy
6:50 PM 35.6 °F 25.2 °F 32.0 °F 87% 29.86 in 6.2 mi ENE 18.4 mph - N/A Rain , Snow Light Snow Showers
7:00 PM 37 °F - 32 °F 75% 29.89 in 31 mi ENE 8.9 mph - - Snow Light Snow Showers
7:20 PM 37.4 °F 31.4 °F 32.0 °F 81% 29.89 in 6.2 mi East 8.1 mph - N/A   Partly Cloudy
8:20 PM 37.4 °F 31.4 °F 30.2 °F 75% 29.89 in 6.2 mi East 8.1 mph - N/A   Partly Cloudy
8:50 PM 37.4 °F 30.8 °F 30.2 °F 75% 29.89 in 6.2 mi East 9.2 mph - N/A   Partly Cloudy
9:20 PM 37.4 °F 30.3 °F 32.0 °F 81% 29.92 in 6.2 mi ENE 10.4 mph - N/A   Partly Cloudy
9:50 PM 37.4 °F 31.4 °F 30.2 °F 75% 29.92 in 6.2 mi ENE 8.1 mph - N/A   Partly Cloudy
10:50 PM 37.4 °F 29.8 °F 28.4 °F 70% 29.92 in 6.2 mi ESE 11.5 mph - N/A   Partly Cloudy
11:20 PM 37.4 °F 31.4 °F 28.4 °F 70% 29.92 in 6.2 mi SE 8.1 mph - N/A   Partly Cloudy
11:50 PM 37.4 °F 31.4 °F 28.4 °F 70% 29.95 in 6.2 mi SE 8.1 mph - N/A   Partly Cloudy